Time,TemperatureF,DewpointF,PressureIn,WindDirection,WindDirectionDegrees,WindSpeedMPH,WindSpeedGustMPH,Humidity,HourlyPrecipIn,Conditions,Clouds,dailyrainin,SoftwareType,DateUTC
2013-01-15 00:04:00,63.0,63.0,-100.00,West,260,3.0,6.0,99,-99.99,,,-99.99,,2013-01-15 05:04:00,
2013-01-15 00:12:00,63.0,63.0,-100.00,West,270,1.0,4.0,99,-99.99,,,-99.99,,2013-01-15 05:12:00,
2013-01-15 00:22:00,63.0,63.0,-100.00,SW,225,1.0,3.0,99,-99.99,,,-99.99,,2013-01-15 05:22:00,
2013-01-15 00:33:00,63.0,63.0,-100.00,WSW,240,1.0,2.0,99,-99.99,,,-99.99,,2013-01-15 05:33:00,
2013-01-15 00:42:00,63.0,63.0,-100.00,South,175,0.0,2.0,99,-99.99,,,-99.99,,2013-01-15 05:42:00,
2013-01-15 00:52:00,63.0,63.0,-100.00,South,190,0.0,1.0,99,-99.99,,,-99.99,,2013-01-15 05:52:00,
2013-01-15 01:03:00,63.0,63.0,-100.00,SSW,210,1.0,1.0,99,-99.99,,,-99.99,,2013-01-15 06:03:00,
2013-01-15 01:12:00,63.0,63.0,-100.00,West,280,0.0,2.0,99,-99.99,,,-99.99,,2013-01-15 06:12:00,
2013-01-15 01:22:00,63.0,63.0,-100.00,WSW,240,1.0,4.0,99,-99.99,,,-99.99,,2013-01-15 06:22:00,
2013-01-15 01:33:00,63.0,63.0,-100.00,SW,235,1.0,3.0,99,-99.99,,,-99.99,,2013-01-15 06:33:00,
2013-01-15 01:43:00,63.0,63.0,-100.00,WSW,250,2.0,4.0,99,-99.99,,,-99.99,,2013-01-15 06:43:00,
2013-01-15 01:52:00,63.0,63.0,-100.00,SW,235,1.0,3.0,99,-99.99,,,-99.99,,2013-01-15 06:52:00,
2013-01-15 02:02:00,63.0,63.0,-100.00,WSW,240,1.0,2.0,99,-99.99,,,-99.99,,2013-01-15 07:02:00,
2013-01-15 02:12:00,63.0,62.0,-100.00,WSW,240,1.0,3.0,99,-99.99,,,-99.99,,2013-01-15 07:12:00,
2013-01-15 02:22:00,63.0,62.0,-100.00,SW,230,2.0,4.0,99,-99.99,,,-99.99,,2013-01-15 07:22:00,
2013-01-15 02:33:00,63.0,62.0,-100.00,SW,230,1.0,2.0,99,-99.99,,,-99.99,,2013-01-15 07:33:00,
2013-01-15 02:42:00,63.0,62.0,-100.00,South,185,2.0,4.0,99,-99.99,,,-99.99,,2013-01-15 07:42:00,
2013-01-15 02:52:00,63.0,62.0,-100.00,SW,235,1.0,2.0,99,-99.99,,,-99.99,,2013-01-15 07:52:00,
2013-01-15 03:02:00,63.0,62.0,-100.00,SW,225,1.0,2.0,99,-99.99,,,-99.99,,2013-01-15 08:02:00,
2013-01-15 03:12:00,62.0,62.0,-100.00,SE,140,2.0,4.0,99,-99.99,,,-99.99,,2013-01-15 08:12:00,
2013-01-15 03:22:00,60.0,60.0,-100.00,NE,50,1.0,5.0,99,-99.99,,,-99.99,,2013-01-15 08:22:00,
2013-01-15 03:33:00,59.0,59.0,-100.00,East,80,4.0,6.0,99,-99.99,,,-99.99,,2013-01-15 08:33:00,
2013-01-15 03:40:00,58.0,57.0,-100.00,East,95,3.0,9.0,99,-99.99,,,-99.99,,2013-01-15 08:40:00,
2013-01-15 03:43:00,59.0,58.0,-100.00,East,80,4.0,6.0,99,-99.99,,,-99.99,,2013-01-15 08:43:00,
2013-01-15 03:52:00,58.0,58.0,-100.00,East,85,5.0,7.0,99,-99.99,,,-99.99,,2013-01-15 08:52:00,
2013-01-15 04:02:00,58.0,58.0,-100.00,ENE,75,3.0,6.0,99,-99.99,,,-99.99,,2013-01-15 09:02:00,
2013-01-15 04:12:00,58.0,57.0,-100.00,East,95,3.0,9.0,99,-99.99,,,-99.99,,2013-01-15 09:12:00,
2013-01-15 04:22:00,58.0,57.0,-100.00,East,95,3.0,9.0,99,-99.99,,,-99.99,,2013-01-15 09:22:00,
2013-01-15 04:33:00,58.0,57.0,-100.00,East,95,3.0,9.0,99,-99.99,,,-99.99,,2013-01-15 09:33:00,
2013-01-15 11:03:00,54.0,54.0,-100.00,ESE,115,3.0,9.0,99,-99.99,,,-99.99,,2013-01-15 16:03:00,
2013-01-15 11:12:00,54.0,54.0,-100.00,East,85,7.0,10.0,99,-99.99,,,-99.99,,2013-01-15 16:12:00,
2013-01-15 11:23:00,54.0,54.0,-100.00,East,85,4.0,11.0,99,-99.99,,,-99.99,,2013-01-15 16:23:00,
2013-01-15 11:33:00,54.0,54.0,-100.00,ESE,120,1.0,13.0,99,-99.99,,,-99.99,,2013-01-15 16:33:00,
2013-01-15 11:43:00,54.0,54.0,-100.00,SE,140,2.0,6.0,99,-99.99,,,-99.99,,2013-01-15 16:43:00,
2013-01-15 11:53:00,53.0,53.0,-100.00,East,85,6.0,12.0,99,-99.99,,,-99.99,,2013-01-15 16:53:00,
2013-01-15 12:04:00,53.0,53.0,-100.00,East,90,4.0,15.0,99,-99.99,,,-99.99,,2013-01-15 17:04:00,
2013-01-15 12:13:00,53.0,53.0,-100.00,East,90,9.0,14.0,99,-99.99,,,-99.99,,2013-01-15 17:13:00,
2013-01-15 12:23:00,53.0,53.0,-100.00,ESE,105,4.0,11.0,99,-99.99,,,-99.99,,2013-01-15 17:23:00,
2013-01-15 12:33:00,53.0,53.0,-100.00,East,90,2.0,14.0,99,-99.99,,,-99.99,,2013-01-15 17:33:00,
2013-01-15 12:43:00,53.0,53.0,-100.00,ENE,65,1.0,7.0,99,-99.99,,,-99.99,,2013-01-15 17:43:00,
2013-01-15 12:53:00,53.0,53.0,-100.00,East,85,6.0,11.0,99,-99.99,,,-99.99,,2013-01-15 17:53:00,
2013-01-15 13:03:00,53.0,52.0,-100.00,East,80,6.0,14.0,99,-99.99,,,-99.99,,2013-01-15 18:03:00,
2013-01-15 13:13:00,53.0,52.0,-100.00,East,90,5.0,11.0,99,-99.99,,,-99.99,,2013-01-15 18:13:00,
2013-01-15 13:23:00,53.0,52.0,-100.00,East,90,3.0,11.0,99,-99.99,,,-99.99,,2013-01-15 18:23:00,
2013-01-15 13:33:00,53.0,52.0,-100.00,ENE,75,2.0,9.0,99,-99.99,,,-99.99,,2013-01-15 18:33:00,
2013-01-15 13:43:00,52.0,52.0,-100.00,East,80,5.0,9.0,99,-99.99,,,-99.99,,2013-01-15 18:43:00,
2013-01-15 13:53:00,52.0,52.0,-100.00,East,100,5.0,9.0,99,-99.99,,,-99.99,,2013-01-15 18:53:00,
2013-01-15 14:03:00,52.0,52.0,-100.00,ENE,60,6.0,16.0,99,-99.99,,,-99.99,,2013-01-15 19:03:00,
2013-01-15 14:13:00,52.0,51.0,-100.00,East,85,5.0,16.0,99,-99.99,,,-99.99,,2013-01-15 19:13:00,
2013-01-15 14:23:00,52.0,51.0,-100.00,East,90,9.0,13.0,99,-99.99,,,-99.99,,2013-01-15 19:23:00,
2013-01-15 14:33:00,51.0,51.0,-100.00,East,80,9.0,14.0,99,-99.99,,,-99.99,,2013-01-15 19:33:00,
2013-01-15 14:43:00,51.0,51.0,-100.00,ENE,70,7.0,16.0,99,-99.99,,,-99.99,,2013-01-15 19:43:00,
2013-01-15 14:53:00,51.0,51.0,-100.00,East,95,4.0,14.0,99,-99.99,,,-99.99,,2013-01-15 19:53:00,
2013-01-15 15:04:00,51.0,51.0,-100.00,East,90,8.0,16.0,99,-99.99,,,-99.99,,2013-01-15 20:04:00,
2013-01-15 15:12:00,51.0,51.0,-100.00,ESE,105,6.0,16.0,99,-99.99,,,-99.99,,2013-01-15 20:12:00,
2013-01-15 15:23:00,51.0,51.0,-100.00,East,90,4.0,14.0,99,-99.99,,,-99.99,,2013-01-15 20:23:00,
2013-01-15 15:33:00,51.0,51.0,-100.00,East,85,5.0,12.0,99,-99.99,,,-99.99,,2013-01-15 20:33:00,
2013-01-15 15:43:00,51.0,51.0,-100.00,ENE,70,1.0,9.0,99,-99.99,,,-99.99,,2013-01-15 20:43:00,
2013-01-15 15:53:00,51.0,50.0,-100.00,East,100,4.0,11.0,99,-99.99,,,-99.99,,2013-01-15 20:53:00,
2013-01-15 16:03:00,51.0,50.0,-100.00,East,95,4.0,10.0,99,-99.99,,,-99.99,,2013-01-15 21:03:00,
2013-01-15 16:13:00,50.0,50.0,-100.00,East,90,6.0,14.0,99,-99.99,,,-99.99,,2013-01-15 21:13:00,
2013-01-15 16:23:00,50.0,50.0,-100.00,East,100,4.0,9.0,99,-99.99,,,-99.99,,2013-01-15 21:23:00,
2013-01-15 16:34:00,50.0,50.0,-100.00,East,85,5.0,14.0,99,-99.99,,,-99.99,,2013-01-15 21:34:00,
2013-01-15 16:43:00,50.0,50.0,-100.00,ESE,105,4.0,12.0,99,-99.99,,,-99.99,,2013-01-15 21:43:00,
2013-01-15 16:53:00,50.0,50.0,-100.00,ESE,105,4.0,12.0,99,-99.99,,,-99.99,,2013-01-15 21:53:00,
2013-01-15 17:03:00,50.0,50.0,-100.00,East,90,1.0,13.0,99,-99.99,,,-99.99,,2013-01-15 22:03:00,
2013-01-15 17:12:00,50.0,50.0,-100.00,SE,135,4.0,13.0,99,-99.99,,,-99.99,,2013-01-15 22:12:00,
2013-01-15 17:23:00,49.0,49.0,-100.00,East,80,5.0,14.0,99,-99.99,,,-99.99,,2013-01-15 22:23:00,
2013-01-15 17:33:00,49.0,49.0,-100.00,East,95,4.0,13.0,99,-99.99,,,-99.99,,2013-01-15 22:33:00,
2013-01-15 17:43:00,49.0,49.0,-100.00,ESE,120,3.0,12.0,99,-99.99,,,-99.99,,2013-01-15 22:43:00,
2013-01-15 17:52:00,49.0,49.0,-100.00,East,80,4.0,12.0,99,-99.99,,,-99.99,,2013-01-15 22:52:00,
2013-01-15 18:03:00,49.0,49.0,-100.00,East,80,3.0,13.0,99,-99.99,,,-99.99,,2013-01-15 23:03:00,
2013-01-15 18:13:00,49.0,48.0,-100.00,East,85,5.0,18.0,99,-99.99,,,-99.99,,2013-01-15 23:13:00,
2013-01-15 18:23:00,49.0,48.0,-100.00,East,80,1.0,13.0,99,-99.99,,,-99.99,,2013-01-15 23:23:00,
2013-01-15 18:33:00,49.0,48.0,-100.00,ESE,120,4.0,14.0,99,-99.99,,,-99.99,,2013-01-15 23:33:00,
2013-01-15 18:43:00,49.0,48.0,-100.00,East,90,3.0,10.0,99,-99.99,,,-99.99,,2013-01-15 23:43:00,
2013-01-15 18:53:00,48.0,48.0,-100.00,ENE,70,2.0,7.0,99,-99.99,,,-99.99,,2013-01-15 23:53:00,
2013-01-15 19:03:00,48.0,48.0,-100.00,East,80,2.0,11.0,99,-99.99,,,-99.99,,2013-01-16 00:03:00,
2013-01-15 19:13:00,48.0,48.0,-100.00,East,85,4.0,11.0,99,-99.99,,,-99.99,,2013-01-16 00:13:00,
2013-01-15 19:22:00,48.0,48.0,-100.00,East,90,6.0,11.0,99,-99.99,,,-99.99,,2013-01-16 00:22:00,
2013-01-15 19:33:00,48.0,48.0,-100.00,East,85,4.0,11.0,99,-99.99,,,-99.99,,2013-01-16 00:33:00,
2013-01-15 19:43:00,48.0,48.0,-100.00,East,85,4.0,11.0,99,-99.99,,,-99.99,,2013-01-16 00:43:00,
2013-01-15 19:52:00,48.0,48.0,-100.00,East,85,4.0,11.0,99,-99.99,,,-99.99,,2013-01-16 00:52:00,
2013-01-15 20:03:00,48.0,48.0,-100.00,East,85,5.0,9.0,99,-99.99,,,-99.99,,2013-01-16 01:03:00,
2013-01-15 20:12:00,48.0,47.0,-100.00,East,80,5.0,11.0,99,-99.99,,,-99.99,,2013-01-16 01:12:00,
2013-01-15 20:22:00,48.0,47.0,-100.00,East,100,3.0,14.0,99,-99.99,,,-99.99,,2013-01-16 01:22:00,
2013-01-15 20:33:00,47.0,47.0,-100.00,East,90,3.0,8.0,99,-99.99,,,-99.99,,2013-01-16 01:33:00,
2013-01-15 20:43:00,47.0,47.0,-100.00,ENE,75,4.0,11.0,99,-99.99,,,-99.99,,2013-01-16 01:43:00,
2013-01-15 20:52:00,47.0,47.0,-100.00,East,85,4.0,13.0,99,-99.99,,,-99.99,,2013-01-16 01:52:00,
2013-01-15 21:03:00,47.0,46.0,-100.00,NNE,30,1.0,14.0,99,-99.99,,,-99.99,,2013-01-16 02:03:00,
2013-01-15 21:12:00,47.0,46.0,-100.00,East,80,2.0,13.0,99,-99.99,,,-99.99,,2013-01-16 02:12:00,
2013-01-15 21:23:00,47.0,46.0,-100.00,East,90,5.0,13.0,99,-99.99,,,-99.99,,2013-01-16 02:23:00,
2013-01-15 21:33:00,47.0,46.0,-100.00,ESE,105,1.0,10.0,99,-99.99,,,-99.99,,2013-01-16 02:33:00,
2013-01-15 21:43:00,46.0,46.0,-100.00,East,95,2.0,14.0,99,-99.99,,,-99.99,,2013-01-16 02:43:00,
2013-01-15 21:53:00,46.0,46.0,-100.00,East,80,5.0,11.0,99,-99.99,,,-99.99,,2013-01-16 02:53:00,
2013-01-15 22:03:00,46.0,46.0,-100.00,East,85,4.0,8.0,99,-99.99,,,-99.99,,2013-01-16 03:03:00,
2013-01-15 22:12:00,46.0,46.0,-100.00,East,90,4.0,12.0,99,-99.99,,,-99.99,,2013-01-16 03:12:00,
2013-01-15 22:22:00,46.0,46.0,-100.00,East,80,6.0,14.0,99,-99.99,,,-99.99,,2013-01-16 03:22:00,
2013-01-15 22:33:00,46.0,46.0,-100.00,ENE,75,4.0,16.0,99,-99.99,,,-99.99,,2013-01-16 03:33:00,
2013-01-15 22:43:00,46.0,46.0,-100.00,East,85,5.0,11.0,99,-99.99,,,-99.99,,2013-01-16 03:43:00,
2013-01-15 22:52:00,46.0,46.0,-100.00,East,80,5.0,12.0,99,-99.99,,,-99.99,,2013-01-16 03:52:00,
2013-01-15 23:02:00,46.0,46.0,-100.00,ENE,65,6.0,12.0,99,-99.99,,,-99.99,,2013-01-16 04:02:00,
2013-01-15 23:12:00,46.0,46.0,-100.00,ENE,75,4.0,13.0,99,-99.99,,,-99.99,,2013-01-16 04:12:00,
2013-01-15 23:22:00,46.0,45.0,-100.00,East,80,7.0,13.0,99,-99.99,,,-99.99,,2013-01-16 04:22:00,
2013-01-15 23:33:00,46.0,45.0,-100.00,ENE,75,7.0,14.0,99,-99.99,,,-99.99,,2013-01-16 04:33:00,
2013-01-15 23:42:00,46.0,45.0,-100.00,East,80,5.0,9.0,99,-99.99,,,-99.99,,2013-01-16 04:42:00,
2013-01-15 23:52:00,46.0,45.0,-100.00,East,80,3.0,9.0,99,-99.99,,,-99.99,,2013-01-16 04:52:00,